Starlink 6353

operational
NORAD ID: 57056 Int'l Des: 2023-088 Owner: SPXS Country: US Constellation: starlink
LEOCIRCULAR

Über Starlink 6353

Beschreibung wird geladen...

Live-Position

3D-Globus wird geladen...

Nächste Überflüge

Höhenverlauf

Altitude vs Time

uPlot chart will show altitude changes over time

Zweizeiliger Elementsatz

1 57056U 23088J 25306.07260434 -.00000018 00000-0 13719-4 0 9991
2 57056 43.0036 80.8394 0001193 274.2088 85.8618 15.02534162131176
Epoch: 2. Nov. 2025 • Age: 23 hours

Aktueller Status

Höhe 569.8 km
Geschwindigkeit 7.58 km/s
Subsatellitenpunkt -38.47°S, 106.59°W
Startdatum 22. Juni 2023
Alter 2.3 years
Typ internet

Technische Details

Klassifizierung Payload
Masse 305.00 kg
Trockenmasse 290.00 kg
Gesamtmasse 305.00 kg
Länge 0.20 m
Durchmesser 2.80 m
Spannweite 9.00 m
Form Box + pan
Hersteller SPXS
Bus-Typ Starlink
Phasenstatus In Orbit
Besitzer/Staat SPXS/US

Große Konstellationen

Loading constellations...